Погода Кировский

Погода Кировский : погода сейчас, прогноз погоды и архив. Всё, что Вы хотите узнать о погоде Кировский!

Хотите узнать прогноз погоды Кировский? Тогда Вам сюда: Погода Кировский

Поиск расширенной информации на нашем сайте:

Другие новости

Новости СМИ2

Главная страница сайта

Новости сайта

03.07.2017

Напоминаем, что на нашем специализированном сайте Метеоцентр.Азия вы можете получить высокодетализированные автоматические прогнозы погоды по пунктам России, СНГ и мира в авиационном формате (включающие направление и скорость ветра, видимость, явления погоды, количество и форму облачности, нижнюю и верхнюю границу облачности).


Погода Кировский - сегодня

Время (UTC), дата Ветер
(°,м/с) 
Видим.   Явления Облачность Т
(°С)
Тd
(°С)
f(%) Тe
(°С)
Pmin
(гПа)
dP
(гПа)
Po
(мм)
O2
(г/м3)
Тmin Tmax R s Состояние
почвы
18 16.02.18 320 (СЗ) 2000 м  снег  10/10 600 м 
[Ns]
-12.3 -14.3 85 -17  1010.4  748  317           
03 17.02.18 300 (СЗ) 20000 м    3/1 1000 м верхняя 
[Cu hum|Ci fib]
-13.1 -23.5 41 -18  1017.1  1.1  753  320           
06 17.02.18 290 (З) 20000 м    ясно 
-12.4 -22.6 42 -17  1017.5  0.4  753  320           
12 17.02.18 тихо ()   20000 м    ясно 
-17.6 -23.8 58 -18  1022.4  757  328           
15 17.02.18 250 (З) 20000 м    ясно 
-24.2 -27.5 74 -25  1023.7  0.9  758  337           
18 17.02.18 180 (Ю) 20000 м    ясно 
-25 -28.3 74 -26  1024.8  758  338           
00 18.02.18 тихо ()   20000 м    ясно 
-18.8 -22.1 75 -19  1026.7  1.5  760  331  -29         
03 18.02.18 270 (З) 20000 м    ясно 
-13.7 -21.9 50 -17  1026.1  -0.3  760  324           
06 18.02.18 250 (З) 20000 м    ясно 
-11.6 -22.5 40 -14  1024.2  -1.8  758  321           
09 18.02.18 130 (ЮВ) 20000 м    ясно 
-14.2 -22.6 49 -14  1023.7  -0.6  758  324    -11.3       
12 18.02.18 тихо ()   20000 м    ясно 
-21.4 -24.8 74 -21  1024.1  758  333           
15 18.02.18 тихо ()   20000 м    ясно 
-24.2 -27.4 75 -24  1023.2  -1.1  757  337           
18 18.02.18 250 (З) 20000 м    ясно 
-23 -26.4 74 -23  1022.6  -0.5  757  335           
00 19.02.18 тихо ()   20000 м    ясно 
-19.6 -23.8 69 -20  1022.8  0.5  757  330  -27.4         
03 19.02.18 250 (З) 20000 м    ясно 
-10 -20.4 42 -14  1021  -1.3  756  318           
06 19.02.18 270 (З) 20000 м    1/0 верхняя 
[Ci sp]
-8.2 -20.5 36 -11  1018.9  -2  755  315           
09 19.02.18 120 (ЮВ) 20000 м    ясно 
-10.8 -19.6 48 -11  1018.4  -0.6  754  318    -6.2       
12 19.02.18 230 (ЮЗ) 20000 м    ясно 
-14.2 -20.7 58 -14  1019  0.4  754  322           
15 19.02.18 280 (З) 20000 м    10/0 верхняя 
[Ci fib]
-12.8 -22.6 44 -15  1019.1  0.1  755  321           
18 19.02.18 240 (ЮЗ) 20000 м    3/0 верхняя 
[Ci fib]
-14.7 -21.6 56 -17  1018.5  -0.6  754  323           
00 20.02.18 260 (З) 20000 м    1/0 верхняя 
[Ci fib]
-15.7 -21.3 62 -16  1018.7  0.5  754  324  -18.8         
03 20.02.18 290 (З) 20000 м    3/0 верхняя 
[Cc]
-10.6 -21.6 40 -15  1018.9  0.4  755  318           
06 20.02.18 260 (З) 20000 м    8/1 1000 м средняя, верхняя 
[Cu hum|Ac trans|Ci sp]
-9.5 -21.7 36 -13  1017.6  -1.2  754  316           
12 20.02.18 230 (ЮЗ) 20000 м    1/0 средняя 
[Ac trans]
-17.1 -21.3 70 -17  1020.2  1.7  755  326           
15 20.02.18 250 (З) 20000 м    ясно 
-18.6 -24.1 62 -23  1020.6  0.4  755  328           
Время (UTC), дата Ветер
(°,м/с) 
Видим.   Явления Облачность Т
(°С)
Тd
(°С)
f(%) Тe
(°С)
Pmin
(гПа)
dP
(гПа)
Po
(мм)
O2
(г/м3)
Тmin Tmax R s Состояние
почвы

Для получения пояснительной информации подведите курсор к названию столбца.

ПОГОДА Кировский - архив

Всё, что Вы хотите узнать о погоде Кировский - удобно и подробно!

Выберите нужную дату (начиная с 1 января 2015* года) и нажмите кнопку "Найти".
Будут отображены архивные сводки погоды по пункту Кировский, начиная с указанной даты.


Отображать данные в формате CSV (для использования в таблицах Excel)


Внимание! Наш архив погоды предназначен исключительно для личного некоммерческого использования в познавательных целях. Если Вам необходимы официальные справки о состоянии погоды (для производственных, юридических, коммерческих и т.п. целей), обращайтесь в органы Росгидромета.

*Примечание: данная дата относится к архиву по метеостанциям СССР (Россия, СНГ, Балтия).
Архив по метеостанциям Зарубежной Европы и Азии (кроме Китая) хранится 10 дней, по другим регионам земного шара (Китай, Африка, Америка, Австралия, Океания) - 1 день.

Кировский - район местоположения метеостанции


Название, широта, долгота, высота метеостанции:
Кировский 45.1°ш. 133.5°д. 98 м над ур. моря [Российская Федерация]

Дополнительная информация

В oтличие oт бoльшинства пoгoдных сайтoв мы публикуем пoдрoбную метеoинфoрмацию в детальнoм прoфессиoнальнoм фoрмате.

Характеристики температуры и влажнoсти вoздуха измеряются на высoте 2 м в тени вдали oт зданий и деревьев.
Скoрoсть ветра измеряется на высoте 10 м (на урoвне рoста челoвека скoрoсть ветра ниже в 1.5-2 раза). Если метеoстанция нахoдится в гoрoде или в лесу, тo скoрoсть ветра занижена на 2-4 м/с пo сравнению с oткрытым местoм. Скoрoсть ветра над акватoриями крупных рек и oзёр, а также на вершинах хoлмoв на 2-5 м/с выше, чем в oбычных услoвиях.
Атмoсфернoе давление в разных тoчках местнoсти мoжет значительнo oтличаться oт давления на метеoстанции, в зависимoсти oт услoвий рельефа (при пoдъёме на 10 м давление пoнижается примернo на 1 мм рт.ст.).